Location: Larrial
(48.2758°N, 4.5331°W)
Time: 00:55:01
(UTC+00:00)

XW-2F - Pass Details

Date: 06 December 2021
Orbit: 495 x 515 km, 97.5° (Epoch: 16 January)

Event Time Altitude Azimuth Distance (km) Brightness Sun altitude
Rises 18:46:04 0° 210° (SSW) 2,606 ? -22.6°
Reaches altitude 10° 18:48:58 10° 236° (SW) 1,732 ? -23.1°
Maximum altitude 18:51:03 14° 270° (W) 1,486 ? -23.4°
Drops below altitude 10° 18:53:09 10° 304° (NW) 1,747 ? -23.8°
Sets 18:56:06 0° 330° (NNW) 2,645 ? -24.3°
